Simultaneous Nadir Overpasses (SNOs) Predictions

Prediction of SNOs between GOES-16 and NPP Satellite Orbit:

Table of predicted SNOs for the next 14.0 days since TLE Epoch: 5/27/2023
Index Date Time (GOES-16) GOES-16 Lat,Lon NPP Lat,Lon Distance(km) Time Diff (sec)
1 05/27/2023 06:15:22 -0.01, -75.19 -0.73, -71.84 381.39 80
2 05/28/2023 18:34:38 0.02, -75.20 -0.44, -77.15 222.49 80
3 05/29/2023 18:18:32 0.01, -75.21 0.57, -72.62 294.90 80
4 05/31/2023 06:37:39 -0.02, -75.22 0.56, -77.89 304.03 80
5 06/01/2023 06:21:34 -0.02, -75.23 -0.45, -73.36 213.48 80
6 06/02/2023 18:40:49 0.03, -75.24 -0.71, -78.67 389.89 80
7 06/03/2023 18:24:43 0.03, -75.25 0.25, -74.13 127.72 80
8 06/05/2023 06:43:50 -0.03, -75.27 0.88, -79.41 471.07 80
9 06/06/2023 06:27:45 -0.03, -75.28 -0.14, -74.87 46.62 80
10 06/08/2023 18:28:13 0.03, -75.30 -0.05, -75.64 38.33 80
11 06/09/2023 18:12:08 0.03, -75.32 0.98, -71.11 480.02 80
